Retour au catalogue

COSMOS 1803

ActifMilitairePO
NORAD 17177·PAYLOAD·🇷🇺 Russia

Lancé Dec 2, 1986 depuis Plesetsk Cosmodrome

Loading…

Prochains Passages (prochaines 24 heures)

TLE

FraisSource: Space-Track

Époque: Sep 14, 2026, 21:31 UTC

1 17177U 86094A   26257.89659065  .00000022  00000-0  90525-4 0  9999
2 17177  82.6079 315.7769 0002457 232.9273 309.0557 12.41548138803086

Suivez COSMOS 1803 en temps réel avec AllMySat

Download on the App Store